This demonstration page uses our WeatherBlox Daily Observations layout. Learn more.

Left ArrowRight Arrow

Hourly Observations for September 18, 2021

Temp ( °F °C ) Dew Point ( °F °C ) Humidity (%) Winds ( mph kmh ) Pressure ( in mb ) Visibility ( mi km ) Precip ( " mm )
12:53 am 00:53 Clear 58 14.4 51 10.6 78 78 ESE 5 7 30.20 1023 10 16 0.00 0.00
1:53 am 01:53 Clear 58 14.4 51 10.6 78 78 undefined N/A 30.19 1022 10 16 0.00 0.00
2:53 am 02:53 Clear 58 14.4 51 10.6 78 78 Calm 30.19 1022 10 16 0.00 0.00
3:53 am 03:53 Clear 57 13.9 51 10.6 81 81 Calm 30.18 1022 10 16 0.00 0.00
4:53 am 04:53 Clear 55 12.8 51 10.6 87 87 Calm 30.18 1022 10 16 0.00 0.00
5:53 am 05:53 Clear 55 12.8 51 10.6 87 87 NE 3 6 30.18 1022 10 16 0.00 0.00
6:53 am 06:53 Clear 56 13.3 51 10.6 84 84 Calm 30.17 1022 10 16 0.00 0.00
7:53 am 07:53 Sunny 58 14.4 52 11.1 81 81 SSE 7 11 30.17 1022 10 16 0.00 0.00
8:53 am 08:53 Sunny 61 16.1 53 11.7 75 75 SSE 8 13 30.18 1022 10 16 0.00 0.00
9:53 am 09:53 Sunny 66 18.9 58 14.4 75 75 S 7 11 30.16 1022 10 16 0.00 0.00
10:53 am 10:53 Sunny 71 21.7 62 16.7 73 73 S 10 17 30.15 1021 10 16 0.00 0.00
11:53 am 11:53 Sunny 77 25 64 17.8 64 64 SSW 9 15 30.13 1020 10 16 0.00 0.00
12:53 pm 12:53 Sunny 81 27.2 64 17.8 57 57 S 13 20 30.09 1019 10 16 0.00 0.00
1:53 pm 13:53 Sunny 84 28.9 64 17.8 51 51 S 12 19 30.07 1018 10 16 0.00 0.00
2:53 pm 14:53 Sunny 86 30 64 17.8 48 48 S 13 20 30.04 1017 10 16 0.00 0.00
3:53 pm 15:53 Sunny 87 30.6 63 17.2 45 45 S 14 22 30.01 1016 10 16 0.00 0.00
4:53 pm 16:53 Sunny 87 30.6 64 17.8 46 46 SSW 13 20 29.98 1015 10 16 0.00 0.00
5:53 pm 17:53 Sunny 87 30.6 63 17.2 45 45 S 17 28 29.97 1015 10 16 0.00 0.00
6:53 pm 18:53 Sunny 84 28.9 62 16.7 48 48 S 13 20 29.97 1015 10 16 0.00 0.00
7:53 pm 19:53 Clear 80 26.7 62 16.7 54 54 S 7 11 29.97 1015 10 16 0.00 0.00
8:53 pm 20:53 Clear 77 25 60 15.6 56 56 S 10 17 29.98 1015 10 16 0.00 0.00
9:53 pm 21:53 Clear 75 23.9 59 15 58 58 S 9 15 29.98 1015 10 16 0.00 0.00
10:53 pm 22:53 Clear 74 23.3 59 15 60 60 S 10 17 29.97 1015 10 16 0.00 0.00
11:53 pm 23:53 Clear 72 22.2 60 15.6 66 66 S 12 19 29.97 1015 10 16 0.00 0.00

Powered by AerisWeather